• In Hungary
  • List of Countries
  • For 7 days
  • Water Temperature
  • Satellite Maps
  • Weather Map
  • News
  • Weather Widgets
  • user-avatar
    Login

    Hourly Weather Sunny Beach

    Today, 23 October, Monday

    Time Temperature Precipitation Wind Pressure Humidity
    00:00 +12°C° 0 mm 3 mps 735 mmHg 78%
    01:00 +12°C° 0 mm 3 mps 735 mmHg 81%
    02:00 +12°C° 0 mm 3 mps 734 mmHg 84%
    03:00 +12°C° 0 mm 3 mps 734 mmHg 86%
    04:00 +12°C° 0 mm 3 mps 733 mmHg 88%
    05:00 +11°C° 0 mm 3 mps 733 mmHg 89%
    06:00 +12°C° 0 mm 4 mps 733 mmHg 88%
    07:00 +13°C° 0 mm 4 mps 732 mmHg 86%
    08:00 +13°C° 0 mm 4 mps 732 mmHg 84%
    09:00 +15°C° 0 mm 5 mps 732 mmHg 76%
    10:00 +16°C° 0 mm 5 mps 731 mmHg 69%
    11:00 +19°C° 0 mm 5 mps 731 mmHg 61%
    12:00 +20°C° 0 mm 5 mps 730 mmHg 57%
    13:00 +21°C° 0 mm 5 mps 730 mmHg 53%
    14:00 +22°C° 0 mm 5 mps 730 mmHg 49%
    15:00 +21°C° 0 mm 4 mps 729 mmHg 50%
    16:00 +20°C° 0 mm 4 mps 729 mmHg 51%
    17:00 +19°C° 0 mm 4 mps 728 mmHg 53%
    18:00 +19°C° 0 mm 4 mps 728 mmHg 55%
    19:00 +18°C° 0 mm 4 mps 728 mmHg 57%
    20:00 +17°C° 0 mm 3 mps 727 mmHg 59%
    21:00 +17°C° 0 mm 3 mps 727 mmHg 59%
    22:00 +17°C° 0 mm 3 mps 727 mmHg 59%
    23:00 +17°C° 0 mm 3 mps 727 mmHg 60%

    Tomorrow, 24 October, Tuesday

    Time Temperature Precipitation Wind Pressure Humidity
    00:00 +17°C° 0.1 mm 3 mps 727 mmHg 61%
    01:00 +16°C° 0.1 mm 3 mps 727 mmHg 61%
    02:00 +16°C° 0.1 mm 3 mps 727 mmHg 62%
    03:00 +15°C° 0.7 mm 4 mps 726 mmHg 69%
    04:00 +15°C° 0.7 mm 4 mps 726 mmHg 76%
    05:00 +14°C° 0.7 mm 5 mps 726 mmHg 83%
    06:00 +15°C° 0.9 mm 5 mps 726 mmHg 80%
    07:00 +15°C° 0.9 mm 5 mps 727 mmHg 77%
    08:00 +15°C° 0.9 mm 6 mps 727 mmHg 75%
    09:00 +16°C° 0.2 mm 6 mps 727 mmHg 70%
    10:00 +17°C° 0.2 mm 6 mps 728 mmHg 65%
    11:00 +20°C° 0.2 mm 5 mps 728 mmHg 60%
    12:00 +20°C° 0.2 mm 5 mps 728 mmHg 59%
    13:00 +20°C° 0.2 mm 5 mps 728 mmHg 57%
    14:00 +20°C° 0.2 mm 5 mps 728 mmHg 55%
    15:00 +19°C° 0.6 mm 5 mps 729 mmHg 61%
    16:00 +17°C° 0.6 mm 5 mps 729 mmHg 66%
    17:00 +16°C° 0.6 mm 5 mps 729 mmHg 71%
    18:00 +16°C° 0.9 mm 5 mps 730 mmHg 75%
    19:00 +15°C° 0.9 mm 6 mps 730 mmHg 79%
    20:00 +15°C° 0.9 mm 6 mps 731 mmHg 83%
    21:00 +15°C° 0.6 mm 6 mps 731 mmHg 84%
    22:00 +15°C° 0.6 mm 6 mps 731 mmHg 85%
    23:00 +15°C° 0.6 mm 6 mps 732 mmHg 85%

    Day after tomorrow, 25 October, Wednesday

    Time Temperature Precipitation Wind Pressure Humidity
    00:00 +15°C° 0.7 mm 7 mps 732 mmHg 86%
    01:00 +15°C° 0.7 mm 8 mps 733 mmHg 86%
    02:00 +15°C° 0.7 mm 8 mps 733 mmHg 86%
    03:00 +13°C° 0.4 mm 9 mps 733 mmHg 86%
    04:00 +13°C° 0.4 mm 9 mps 734 mmHg 86%
    05:00 +12°C° 0.4 mm 10 mps 734 mmHg 86%
    06:00 +12°C° 0.3 mm 10 mps 735 mmHg 85%
    07:00 +11°C° 0.3 mm 10 mps 735 mmHg 84%
    08:00 +11°C° 0.3 mm 10 mps 736 mmHg 83%
    09:00 +11°C° 0.3 mm 10 mps 736 mmHg 82%
    10:00 +10°C° 0.3 mm 9 mps 737 mmHg 81%
    11:00 +10°C° 0.3 mm 9 mps 738 mmHg 80%
    12:00 +10°C° 0.6 mm 9 mps 738 mmHg 80%
    13:00 +10°C° 0.6 mm 9 mps 738 mmHg 79%
    14:00 +10°C° 0.6 mm 9 mps 739 mmHg 79%
    15:00 +10°C° 0.8 mm 9 mps 739 mmHg 78%
    16:00 +9°C° 0.8 mm 8 mps 740 mmHg 78%
    17:00 +9°C° 0.8 mm 8 mps 740 mmHg 77%
    18:00 +9°C° 0.7 mm 8 mps 741 mmHg 77%
    19:00 +9°C° 0.7 mm 8 mps 741 mmHg 78%
    20:00 +8°C° 0.7 mm 7 mps 742 mmHg 78%
    21:00 +8°C° 0.2 mm 7 mps 742 mmHg 77%
    22:00 +8°C° 0.2 mm 7 mps 742 mmHg 77%
    23:00 +8°C° 0.2 mm 7 mps 743 mmHg 76%

    26 October, Thursday

    Time Temperature Precipitation Wind Pressure Humidity
    00:00 +6°C° 0 mm 7 mps 743 mmHg 76%
    01:00 +7°C° 0 mm 6 mps 743 mmHg 75%
    02:00 +7°C° 0 mm 6 mps 743 mmHg 75%
    03:00 +5°C° 0 mm 6 mps 743 mmHg 76%
    04:00 +6°C° 0 mm 5 mps 743 mmHg 76%
    05:00 +6°C° 0 mm 5 mps 744 mmHg 77%
    06:00 +6°C° 0 mm 5 mps 744 mmHg 75%
    07:00 +6°C° 0 mm 5 mps 744 mmHg 73%
    08:00 +7°C° 0 mm 5 mps 745 mmHg 71%
    09:00 +8°C° 0 mm 5 mps 745 mmHg 67%
    10:00 +10°C° 0 mm 5 mps 745 mmHg 63%
    11:00 +12°C° 0 mm 4 mps 745 mmHg 58%
    12:00 +13°C° 0 mm 4 mps 745 mmHg 57%
    13:00 +13°C° 0 mm 3 mps 744 mmHg 55%
    14:00 +14°C° 0 mm 3 mps 744 mmHg 53%
    15:00 +13°C° 0 mm 3 mps 744 mmHg 57%
    16:00 +13°C° 0 mm 2 mps 744 mmHg 61%
    17:00 +13°C° 0 mm 2 mps 743 mmHg 65%
    18:00 +12°C° 0 mm 1 mps 744 mmHg 67%
    19:00 +11°C° 0 mm 1 mps 744 mmHg 70%
    20:00 +10°C° 0 mm 1 mps 744 mmHg 73%
    21:00 +10°C° 0 mm 1 mps 743 mmHg 73%
    22:00 +10°C° 0 mm 1 mps 743 mmHg 74%
    23:00 +10°C° 0 mm 1 mps 743 mmHg 74%

    27 October, Friday

    Time Temperature Precipitation Wind Pressure Humidity
    00:00 +9°C° 0 mm 1 mps 743 mmHg 75%
    01:00 +8°C° 0 mm 2 mps 742 mmHg 76%
    02:00 +8°C° 0 mm 2 mps 742 mmHg 77%
    03:00 +8°C° 0 mm 2 mps 741 mmHg 78%
    04:00 +8°C° 0 mm 2 mps 741 mmHg 79%
    05:00 +8°C° 0 mm 2 mps 740 mmHg 80%
    06:00 +8°C° 0 mm 2 mps 740 mmHg 78%
    07:00 +9°C° 0 mm 2 mps 740 mmHg 76%
    08:00 +9°C° 0 mm 2 mps 740 mmHg 73%
    09:00 +12°C° 0 mm 2 mps 739 mmHg 66%
    10:00 +13°C° 0 mm 3 mps 739 mmHg 59%
    11:00 +16°C° 0 mm 3 mps 739 mmHg 52%
    12:00 +17°C° 0 mm 3 mps 738 mmHg 50%
    13:00 +18°C° 0 mm 3 mps 737 mmHg 48%
    14:00 +19°C° 0 mm 3 mps 737 mmHg 45%
    15:00 +18°C° 0 mm 3 mps 736 mmHg 50%
    16:00 +16°C° 0 mm 3 mps 736 mmHg 54%
    17:00 +14°C° 0 mm 3 mps 735 mmHg 59%
    18:00 +14°C° 0 mm 3 mps 735 mmHg 61%
    19:00 +13°C° 0 mm 3 mps 734 mmHg 64%
    20:00 +12°C° 0 mm 3 mps 734 mmHg 67%
    21:00 +12°C° 0 mm 3 mps 734 mmHg 69%
    22:00 +12°C° 0 mm 3 mps 733 mmHg 72%
    23:00 +11°C° 0 mm 3 mps 733 mmHg 75%

    28 October, Saturday

    Time Temperature Precipitation Wind Pressure Humidity
    00:00 +11°C° 0 mm 3 mps 732 mmHg 77%
    01:00 +11°C° 0 mm 3 mps 732 mmHg 79%
    02:00 +11°C° 0 mm 3 mps 731 mmHg 81%
    03:00 +11°C° 0 mm 3 mps 731 mmHg 83%
    04:00 +10°C° 0 mm 3 mps 730 mmHg 84%
    05:00 +10°C° 0 mm 3 mps 730 mmHg 86%
    06:00 +11°C° 0 mm 4 mps 730 mmHg 84%
    07:00 +11°C° 0 mm 4 mps 730 mmHg 83%
    08:00 +12°C° 0 mm 4 mps 730 mmHg 82%
    09:00 +13°C° 0 mm 4 mps 730 mmHg 76%
    10:00 +15°C° 0 mm 4 mps 731 mmHg 70%
    11:00 +17°C° 0 mm 4 mps 731 mmHg 64%
    12:00 +18°C° 0 mm 3 mps 731 mmHg 61%
    13:00 +18°C° 0 mm 3 mps 730 mmHg 58%
    14:00 +19°C° 0 mm 2 mps 730 mmHg 55%
    15:00 +18°C° 0.1 mm 2 mps 730 mmHg 61%
    16:00 +17°C° 0.1 mm 2 mps 730 mmHg 66%
    17:00 +16°C° 0.1 mm 3 mps 730 mmHg 72%
    18:00 +14°C° 1.2 mm 3 mps 730 mmHg 76%
    19:00 +13°C° 1.2 mm 3 mps 730 mmHg 80%
    20:00 +13°C° 1.2 mm 3 mps 729 mmHg 84%
    21:00 +12°C° 2.6 mm 3 mps 729 mmHg 86%
    22:00 +12°C° 2.6 mm 3 mps 729 mmHg 87%
    23:00 +12°C° 2.6 mm 4 mps 729 mmHg 89%

    29 October, Sunday

    Time Temperature Precipitation Wind Pressure Humidity
    00:00 +11°C° 1.7 mm 4 mps 729 mmHg 89%
    01:00 +11°C° 1.7 mm 3 mps 728 mmHg 89%
    02:00 +11°C° 1.7 mm 3 mps 728 mmHg 89%
    03:00 +11°C° 0.7 mm 3 mps 728 mmHg 89%
    04:00 +10°C° 0.7 mm 3 mps 727 mmHg 89%
    05:00 +10°C° 0.7 mm 4 mps 727 mmHg 89%
    06:00 +10°C° 1.1 mm 4 mps 727 mmHg 89%
    07:00 +10°C° 1.1 mm 4 mps 727 mmHg 90%
    08:00 +8°C° 1.1 mm 4 mps 727 mmHg 90%
    09:00 +8°C° 1.6 mm 5 mps 727 mmHg 90%
    10:00 +8°C° 1.6 mm 5 mps 727 mmHg 89%
    11:00 +8°C° 1.6 mm 6 mps 727 mmHg 88%
    12:00 +8°C° 0.6 mm 6 mps 726 mmHg 87%
    13:00 +8°C° 0.6 mm 7 mps 726 mmHg 85%
    14:00 +8°C° 0.6 mm 7 mps 726 mmHg 84%
    15:00 +8°C° 0.4 mm 7 mps 726 mmHg 85%
    16:00 +8°C° 0.4 mm 7 mps 727 mmHg 86%
    17:00 +8°C° 0.4 mm 7 mps 727 mmHg 87%
    18:00 +8°C° 0.6 mm 7 mps 727 mmHg 87%
    19:00 +7°C° 0.6 mm 8 mps 728 mmHg 87%
    20:00 +7°C° 0.6 mm 8 mps 728 mmHg 88%
    21:00 +7°C° 0.5 mm 8 mps 728 mmHg 86%
    22:00 +7°C° 0.5 mm 8 mps 729 mmHg 85%
    23:00 +7°C° 0.5 mm 8 mps 729 mmHg 84%
    Show more